Tracking 23752 objects as of 24-Oct-2021
HD Live streaming from Space Station
objects crossing your sky now

BREEZE-M DEB

Track BREEZE-M DEB now!
10-day predictions


NORAD ID: 38608
Int'l Code: 2008-011BF
Perigee: 286.7 km
Apogee: 10,863.0 km
Inclination: 48.4 °
Period: 216.6 minutes
Semi major axis: 11945 km
RCS: 0.224 m2 (medium)
Launch date: March 14, 2008
Source: Commonwealth of Independent States (former USSR) (CIS)
Launch site: TYURATAM MISSILE AND SPACE COMPLEX (TTMTR)

Note: This is SATELLITE DEBRIS
aabbcc
Your satellite tracking list
Your tracking list is empty




NASA's NSSDC Master Catalog

Two Line Element Set (TLE):
1 38608U 08011BF  21296.93593388  .00434368  00000-0  35951-1 0  9995
2 38608  48.3641 266.4152 4426760 314.9888  16.6626  6.64929160182628
Source of the keplerian elements: AFSPC